Location: Del Amo
(33.8464°N, 118.2104°W)
Time: 18:36:23
(UTC+00:00)

Vanguard 2 Rocket - Pass Details

Date: 13 September 2024
Orbit: 553 x 3299 km, 32.9° (Epoch: 05 October)

Event Time Altitude Azimuth Distance (km) Brightness Sun altitude
Rises 10:52:21 0° 259° (WSW) 4,901 - -32.9°
Reaches altitude 10° 10:55:01 10° 258° (WSW) 4,207 - -32.4°
Exits shadow 11:02:14 49° 255° (WSW) 2,816 8.8 -31.1°
Maximum altitude 11:07:32 85° 172° (S) 2,651 9.0 -30.1°
Drops below altitude 10° 11:27:15 10° 87° (E) 6,232 12.0 -26.5°
Sets 11:32:14 0° 87° (E) 7,278 12.6 -25.5°
